Meteo pe oră la Bolshie Malamasy

Astăzi, 10 Mai, Luni

Timp Temperatura Precipitaţii Vânt Presiune Umiditate
00:00 +14°C° 0.1 mm 2 m/s 754 mmHg 87%
01:00 +14°C° 0 mm 2 m/s 754 mmHg 88%
02:00 +14°C° 0 mm 1 m/s 755 mmHg 88%
03:00 +14°C° 0 mm 1 m/s 755 mmHg 88%
04:00 +14°C° 0.1 mm 1 m/s 756 mmHg 89%
05:00 +14°C° 0.1 mm 2 m/s 756 mmHg 90%
06:00 +14°C° 0.1 mm 2 m/s 757 mmHg 90%
07:00 +15°C° 0 mm 2 m/s 757 mmHg 85%
08:00 +17°C° 0 mm 2 m/s 757 mmHg 81%
09:00 +18°C° 0 mm 3 m/s 758 mmHg 76%
10:00 +19°C° 0 mm 2 m/s 758 mmHg 73%
11:00 +19°C° 0 mm 2 m/s 759 mmHg 70%
12:00 +20°C° 0 mm 2 m/s 759 mmHg 67%
13:00 +20°C° 0 mm 2 m/s 759 mmHg 66%
14:00 +21°C° 0 mm 3 m/s 760 mmHg 66%
15:00 +21°C° 0 mm 4 m/s 760 mmHg 65%
16:00 +20°C° 0.2 mm 4 m/s 760 mmHg 70%
17:00 +19°C° 0.2 mm 4 m/s 761 mmHg 75%
18:00 +18°C° 0.2 mm 4 m/s 761 mmHg 80%
19:00 +17°C° 0.4 mm 4 m/s 761 mmHg 85%
20:00 +15°C° 0.4 mm 4 m/s 762 mmHg 89%
21:00 +14°C° 0.4 mm 4 m/s 762 mmHg 94%
22:00 +13°C° 0 mm 4 m/s 762 mmHg 95%
23:00 +12°C° 0 mm 4 m/s 763 mmHg 95%

Mâine, 11 Mai, Marţi

Timp Temperatura Precipitaţii Vânt Presiune Umiditate
00:00 +11°C° 0 mm 3 m/s 763 mmHg 96%
01:00 +11°C° 0 mm 3 m/s 763 mmHg 97%
02:00 +11°C° 0 mm 3 m/s 763 mmHg 97%
03:00 +10°C° 0 mm 3 m/s 763 mmHg 97%
04:00 +11°C° 0 mm 3 m/s 764 mmHg 95%
05:00 +11°C° 0 mm 3 m/s 764 mmHg 94%
06:00 +12°C° 0 mm 3 m/s 764 mmHg 92%
07:00 +14°C° 0 mm 3 m/s 764 mmHg 85%
08:00 +17°C° 0 mm 3 m/s 764 mmHg 79%
09:00 +19°C° 0 mm 4 m/s 765 mmHg 72%
10:00 +20°C° 0 mm 3 m/s 765 mmHg 66%
11:00 +22°C° 0 mm 3 m/s 765 mmHg 59%
12:00 +24°C° 0 mm 3 m/s 765 mmHg 53%
13:00 +25°C° 0 mm 3 m/s 765 mmHg 50%
14:00 +25°C° 0 mm 3 m/s 764 mmHg 48%
15:00 +26°C° 0 mm 2 m/s 764 mmHg 45%
16:00 +25°C° 0 mm 2 m/s 764 mmHg 51%
17:00 +24°C° 0 mm 2 m/s 764 mmHg 57%
18:00 +23°C° 0 mm 2 m/s 765 mmHg 63%
19:00 +20°C° 0 mm 2 m/s 765 mmHg 70%
20:00 +19°C° 0 mm 2 m/s 765 mmHg 76%
21:00 +17°C° 0 mm 2 m/s 765 mmHg 83%
22:00 +16°C° 0 mm 2 m/s 765 mmHg 85%
23:00 +16°C° 0 mm 2 m/s 765 mmHg 87%

Poimâine, 12 Mai, Miercuri

Timp Temperatura Precipitaţii Vânt Presiune Umiditate
00:00 +15°C° 0 mm 2 m/s 766 mmHg 89%
01:00 +15°C° 0 mm 2 m/s 766 mmHg 90%
02:00 +14°C° 0 mm 2 m/s 766 mmHg 91%
03:00 +14°C° 0 mm 2 m/s 766 mmHg 92%
04:00 +15°C° 0 mm 2 m/s 766 mmHg 89%
05:00 +16°C° 0 mm 2 m/s 766 mmHg 85%
06:00 +17°C° 0 mm 2 m/s 766 mmHg 81%
07:00 +18°C° 0 mm 3 m/s 766 mmHg 73%
08:00 +20°C° 0 mm 3 m/s 766 mmHg 65%
09:00 +22°C° 0 mm 4 m/s 766 mmHg 56%
10:00 +23°C° 0 mm 4 m/s 766 mmHg 53%
11:00 +25°C° 0 mm 4 m/s 766 mmHg 50%
12:00 +26°C° 0 mm 4 m/s 766 mmHg 46%
13:00 +26°C° 0 mm 4 m/s 765 mmHg 44%
14:00 +26°C° 0 mm 4 m/s 765 mmHg 42%
15:00 +26°C° 0 mm 3 m/s 765 mmHg 40%
16:00 +25°C° 0 mm 3 m/s 765 mmHg 47%
17:00 +24°C° 0 mm 2 m/s 765 mmHg 53%
18:00 +23°C° 0 mm 2 m/s 765 mmHg 59%
19:00 +20°C° 0 mm 2 m/s 765 mmHg 60%
20:00 +19°C° 0 mm 2 m/s 765 mmHg 61%
21:00 +17°C° 0 mm 2 m/s 765 mmHg 62%
22:00 +17°C° 0 mm 2 m/s 765 mmHg 62%
23:00 +16°C° 0 mm 2 m/s 765 mmHg 62%

13 Mai, Joi

Timp Temperatura Precipitaţii Vânt Presiune Umiditate
00:00 +16°C° 0 mm 1 m/s 765 mmHg 62%
01:00 +15°C° 0 mm 1 m/s 765 mmHg 63%
02:00 +15°C° 0 mm 1 m/s 765 mmHg 64%
03:00 +15°C° 0 mm 2 m/s 765 mmHg 65%
04:00 +16°C° 0 mm 2 m/s 765 mmHg 66%
05:00 +16°C° 0 mm 1 m/s 765 mmHg 67%
06:00 +18°C° 0 mm 1 m/s 765 mmHg 68%
07:00 +19°C° 0 mm 2 m/s 765 mmHg 63%
08:00 +21°C° 0 mm 3 m/s 765 mmHg 58%
09:00 +22°C° 0 mm 3 m/s 765 mmHg 53%
10:00 +23°C° 0 mm 4 m/s 765 mmHg 48%
11:00 +25°C° 0 mm 4 m/s 765 mmHg 44%
12:00 +26°C° 0 mm 5 m/s 764 mmHg 39%
13:00 +26°C° 0 mm 5 m/s 764 mmHg 39%
14:00 +26°C° 0 mm 5 m/s 764 mmHg 40%
15:00 +26°C° 0 mm 4 m/s 764 mmHg 40%
16:00 +25°C° 0 mm 4 m/s 764 mmHg 46%
17:00 +24°C° 0 mm 3 m/s 763 mmHg 51%
18:00 +23°C° 0 mm 2 m/s 763 mmHg 57%
19:00 +21°C° 0 mm 2 m/s 763 mmHg 59%
20:00 +19°C° 0 mm 2 m/s 763 mmHg 61%
21:00 +17°C° 0 mm 2 m/s 763 mmHg 63%
22:00 +17°C° 0 mm 2 m/s 763 mmHg 64%
23:00 +17°C° 0 mm 2 m/s 763 mmHg 64%

14 Mai, Vineri

Timp Temperatura Precipitaţii Vânt Presiune Umiditate
00:00 +16°C° 0 mm 2 m/s 763 mmHg 64%
01:00 +16°C° 0 mm 2 m/s 763 mmHg 64%
02:00 +16°C° 0 mm 2 m/s 763 mmHg 64%
03:00 +16°C° 0 mm 2 m/s 763 mmHg 64%
04:00 +16°C° 0 mm 2 m/s 763 mmHg 67%
05:00 +17°C° 0 mm 2 m/s 763 mmHg 70%
06:00 +17°C° 0 mm 2 m/s 763 mmHg 72%
07:00 +19°C° 0 mm 3 m/s 763 mmHg 65%
08:00 +21°C° 0 mm 3 m/s 763 mmHg 58%
09:00 +23°C° 0 mm 4 m/s 763 mmHg 51%
10:00 +25°C° 0 mm 4 m/s 763 mmHg 47%
11:00 +26°C° 0 mm 4 m/s 763 mmHg 44%
12:00 +27°C° 0 mm 5 m/s 763 mmHg 40%
13:00 +27°C° 0 mm 5 m/s 762 mmHg 40%
14:00 +27°C° 0 mm 5 m/s 762 mmHg 41%
15:00 +27°C° 0 mm 5 m/s 762 mmHg 41%
16:00 +26°C° 0 mm 4 m/s 762 mmHg 47%
17:00 +25°C° 0 mm 4 m/s 761 mmHg 53%
18:00 +24°C° 0 mm 3 m/s 761 mmHg 58%
19:00 +21°C° 0 mm 3 m/s 761 mmHg 62%
20:00 +20°C° 0 mm 3 m/s 761 mmHg 65%
21:00 +18°C° 0 mm 3 m/s 761 mmHg 68%
22:00 +18°C° 0 mm 3 m/s 761 mmHg 68%
23:00 +17°C° 0 mm 3 m/s 760 mmHg 68%

15 Mai, Sâmbătă

Timp Temperatura Precipitaţii Vânt Presiune Umiditate
00:00 +17°C° 0 mm 3 m/s 760 mmHg 68%
01:00 +17°C° 0 mm 3 m/s 760 mmHg 69%
02:00 +16°C° 0 mm 3 m/s 760 mmHg 69%
03:00 +16°C° 0 mm 2 m/s 760 mmHg 70%
04:00 +17°C° 0 mm 2 m/s 760 mmHg 69%
05:00 +18°C° 0 mm 2 m/s 760 mmHg 68%
06:00 +18°C° 0 mm 2 m/s 760 mmHg 68%
07:00 +20°C° 0 mm 3 m/s 760 mmHg 61%
08:00 +22°C° 0 mm 4 m/s 760 mmHg 55%
09:00 +25°C° 0 mm 4 m/s 760 mmHg 48%
10:00 +26°C° 0 mm 5 m/s 759 mmHg 45%
11:00 +27°C° 0 mm 5 m/s 759 mmHg 41%
12:00 +28°C° 0 mm 5 m/s 759 mmHg 38%
13:00 +29°C° 0 mm 5 m/s 759 mmHg 38%
14:00 +29°C° 0 mm 5 m/s 759 mmHg 38%
15:00 +29°C° 0 mm 4 m/s 758 mmHg 38%
16:00 +28°C° 0 mm 4 m/s 758 mmHg 44%
17:00 +27°C° 0 mm 3 m/s 758 mmHg 50%
18:00 +26°C° 0 mm 3 m/s 758 mmHg 56%
19:00 +24°C° 0 mm 3 m/s 757 mmHg 59%
20:00 +21°C° 0 mm 3 m/s 757 mmHg 62%
21:00 +19°C° 0 mm 3 m/s 757 mmHg 65%
22:00 +18°C° 0 mm 2 m/s 757 mmHg 65%
23:00 +18°C° 0 mm 2 m/s 757 mmHg 64%
Arată mai mult

Formular de consimțământ

Meteoprog și furnizorii noștri de servicii pot stoca și accesa date personale, precum cookies, identificatori de dispozitiv sau alte tehnologii similare pe dispozitivul dumneavoastră și procesa astfel de date pentru a personaliza conținutul și reclamele, dar și pentru a oferi caracteristici de social media și pentru a analiza traficul.

  • Stocarea și/sau accesarea informațiilor pe dispozitivul dumneavoastră

    Cookies, identificatori de dispozitiv sau alte informații pot fi stocate sau accesate pe dispozitiv în scopurile indicate mai sus.

  • Reclame și conținut personalizat, evaluarea reclamelor și a conținutului, informații despre audiențe și dezvoltarea produselor

    Reclamele și conținutul pot fi personalizate pe baza unui profil. Pot fi adăugate date suplimentare pentru a personaliza mai bine reclamele și conținutul. Performanța reclamelor și conținutului poate fi măsurată. Pot fi obținute informații despre utilizatorii care au văzut reclamele și conținutul. Aceste date pot fi utilizate pentru a dezvolta sau îmbunătăți experiența utilizatorilor, sistemele și software-ul.

Dând clic pe ‘Sunt de acord’, permiteți utilizarea cookie-urilor menționate, a identificatorilor de dispozitiv, balizelor web sau altor tehnologii similare. Setările pot fi modificate din browser-ul dispozitivului dumneavoastră.

În anumite scopuri, interesele legitime pot prima asupra consimțământului. Puteți citi mai multe informații în acest sens în Politica privind Confidențialitatea Datelor și Cookie.